Location: Haram ta Haram Freeway
(35.0583°N, 51.4202°E)
Time: 14:33:19
(UTC+04:30)

CAS-4A - Pass Details

Date: 05 July 2020
Orbit: 528 x 545 km, 43.0° (Epoch: 02 August)

Event Time Altitude Azimuth Distance (km) Brightness Sun altitude
Exits shadow 03:22:14 19° 117° (ESE) 1,287 ? -24.1°
Drops below altitude 10° 03:24:17 10° 89° (E) 1,780 ? -23.9°
Sets 03:26:52 0° 74° (ENE) 2,669 ? -23.6°
